Preview of NWS' New Version of Forecast
This preview is not operational and should not be used for support decisions.

Regional Weather Roundup (RWR)

Issued by Gray - Portland, ME (GYX)

                            
000
ASUS41 KGYX 202110
RWRGYX
WEATHER ROUNDUP FOR MAINE AND NEW HAMPSHIRE
NATIONAL WEATHER SERVICE GRAY ME
400 PM EST SUN JAN 20 2019

MEZ002-005-006-010-012-015-018-020-021-024-026-027-029-202200-
MAINE
  
CITY           SKY/WX    TMP DP  RH WIND       PRES   REMARKS
PORTLAND       LGTSLEET   9   4  80 N15G25    29.33R VSB 3/4 WCI  -8  
SANFORD        LGT SNOW  12  10  92 NW9       29.33R VSB 3/4          
BAR HARBOR     LGT SNOW  15  13  91 N10G17    29.30F VSB 3/4 WCI   2  
WISCASSET      LGT SNOW   7   3  84 N8G16     29.29F VSB 3/4          
ROCKLAND       LGT SNOW  19  17  92 NE17G28   29.22F VSB 1   WCI   4  
FRYEBURG       LGT SNOW  13  11  92 E3        29.31F FOG              
LEWISTONAUBURN SNOW       7   3  84 N18G25    29.34S VSB 1/2 WCI -12  
AUGUSTA        SNOW       4   1  88 N22G30    29.34F VSB 1/2 WCI -18  
WATERVILLE     LGT SNOW N/A N/A N/A MISG        N/A  VSB 3/4          
BANGOR         LGTSLEET   7   3  84 N13       29.34F VSB 3/4 WCI  -9  
GREENVILLE       N/A     -1  -8  72 NW13      29.30F WCI -19          
MILLINOCKET    MIX PCPN   5  -1  76 N10G20    29.45F VSB 1/2 WCI -10  
HOULTON        SNOW      13  11  92 N9        29.43F VSB 1/4          
PRESQUE ISLE   SNOW       8   5  87 N12       29.51F VSB 1/2 WCI  -7  
FRENCHVILLE    HVY SNOW   9   3  77 NE20G32   29.54F VSB 1/4 WCI -10  
CARIBOU        HVY SNOW   9   4  80 N15G23    29.49F VSB 1/4 WCI  -8  
$$

NHZ002-005-008-009-011-012-014-202200-
NEW HAMPSHIRE
  
CITY           SKY/WX    TMP DP  RH WIND       PRES   REMARKS
PORTSMOUTH     LGT SNOW  15  11  85 NW12      29.31R FOG     WCI   2  
ROCHESTER      MIX PCPN  16  13  88 N8        29.30R VSB 3/4          
NASHUA         LGT SNOW  21  21 100 NW9       29.31F FOG              
MANCHESTER     FRZ RAIN  21  17  84 N13       29.30F FOG     WCI   9  
CONCORD        CLOUDY    20  17  88 NW7       29.32S                  
LACONIA        LGT SNOW  19  16  88 CALM      29.30F FOG              
PLYMOUTH       LGT SNOW  19  14  81 W8G18     29.32F                  
BERLIN         LGT SNOW  10   4  76 N7        29.36F VSB 1            
WHITEFIELD     SNOW      15  12  88 N3        29.35S VSB 1/4          
JAFFREY        CLOUDY    20  18  92 CALM      29.27R                  
KEENE          LGT SNOW  21  16  79 N16G22    29.35R WCI   7          
LEBANON        CLOUDY    18  10  71 NW9       29.39R                  
MT WASHINGTON  SNOWSHWR  21  21 100 SW36        N/A  VSB 1/16WCI   2  
$$

VTZ005-007-008-202200-
VERMONT
  
CITY           SKY/WX    TMP DP  RH WIND       PRES   REMARKS
ST JOHNSBURY     N/A     10   5  80 MISG      29.41R                  
MONTPELIER     LGT SNOW   1  -2  87 NW15G22   29.47R FOG     WCI -18  
BURLINGTON     LGT SNOW   2  -5  72 N17G24    29.63R BLWGSNOWWCI -18  
$$

MAZ007-012-024-CTZ003-RIZ002-NYZ038-NYZ072-202200-
SOUTHERN NEW ENGLAND AND NY
  
CITY           SKY/WX    TMP DP  RH WIND       PRES   REMARKS
BOSTON         FRZ RAIN  22  18  85 NW14      29.29F FOG     WCI   9  
WORCESTER      FRZ RAIN  21  19  92 NW9       29.25R FOG              
NANTUCKET      FOG       48  47  96 S18       29.16F VSB 1/4          
PROVIDENCE     FRZ RAIN  25  23  92 N15G23    29.27R FOG     WCI  13  
HARTFORD       FLURRIES  25  22  88 N8        29.34R                  
ALBANY         LGT SNOW  11   0  61 NW20G29   29.56R BLWGSNOWWCI  -7  
NEW YORK CITY  CLOUDY    30  21  69 NW25G32   29.42R WCI  16          
$$

ANZ081-ANZ082-ANZ150-NHZ014-MEZ023>029-202200-
COASTAL MARINE OBSERVATIONS
  
STATION/POSITION TIME  TEMP    WIND        PRES    WAVE
                       AIR SEA DIR/SP/G            HT/PER
                 (UTC) (F)     (DEG/KT/KT) (MB)    (FT/S)
MOUNT DESERT ROC 2100   42     220/  5/  5  990.8F
MATINICUS ROCK   2100   32      30/  8/  9  988.3F
ISLE OF SHOALS   2100   16     320/ 26/ 29  992.2R
JEFFREYS LEDGE   2038      42                N/A    12/10
CASHES LEDGE BUO 2050   41 40               988.8F  12/ 9
$$

.............KEY..............
   WCI - WIND CHILL
   TC  - TEMPERATURE IN CELSIUS
   VSB - VISIBILITY IN MILES
   HX  - HEAT INDEX
   FAIR- INDICATES FEW OR NO CLOUDS BELOW 12,000 FT, WITH NO 
         SIGNIFICANT WEATHER AND/OR OBSTRUCTIONS TO VISIBILITY.